Вейсеяй

Литва     54°05′49″N   23°42′20″E
темп.,
°C
ветер,
м/с
пор.,
м/с
влажн.,
%
обл.,
%
осадки,
мм/ч
давл.,
гПа
погр.,
м
11 мая, вт
вт1100:00+14ююв51576100 0.0 1019454
03:00+12юв4138515 0.0 1020339
06:00+11юв514848 0.0 1019367
09:00+16ююв613665 0.0 1020630
12:00+19ююв7105477 0.0 10201081
15:00+21юв79475 0.0 10191247
18:00+20юв694833 0.0 10181197
21:00+15юв411675 0.0 1017426
12 мая, ср
ср1200:00+12юв4147345 0.0 1018385
03:00+12юв4137777 0.0 1017370
06:00+11юв4128351 0.0 1017343
09:00+16юв5107037 0.0 1017608
12:00+20юв795274 0.0 10161222
15:00+19юв79400 0.0 10161489
18:00+18вюв68490 0.0 10151511
21:00+14вюв4106729 0.0 1014517
13 мая, чт
чт1300:00+10вюв26824 0.0 1014113
03:00+8вюв119089 0.0 101211
06:00+9с1182100 0.0 101049
09:00+9ю1296100 3.1 1009132
12:00+9юз2395100 2.4 1007254
15:00+9ю2395100 2.9 1007281
18:00+9юв2595100 0.8 1006318
21:00+9в3796100 1.2 1006301
14 мая, пт
пт1400:00+9вюв3996100 0.0 1005385
03:00+8в389899 0.1 1004350
06:00+8в269897 0.0 1003310
09:00+10всв2496100 0.7 1003321
12:00+10св2397100 0.8 1003233
15:00+11с1296100 1.1 1003207
18:00+13ю239096 0.0 1004467
21:00+11зюз2292100 0.1 100442
15 мая, сб
сб1500:00+11ю229572 0.0 100557
03:00+8ю229851 0.0 100643
06:00+8ю249979 0.0 100691
09:00+11юз3696100 0.0 1007468
12:00+13зюз4581100 0.1 1008875
15:00+13зюз3576100 0.1 1009930
18:00+16з236361 0.0 10081156
21:00+13ююз138475 0.3 100870